Погода в Перемышле

Россия / Калужская область     54°15′50″N   36°09′35″E
темп.,
°C
ветер,
м/с
пор.,
м/с
влажн.,
%
обл.,
%
осадки,
мм/ч
давл.,
гПа
погр.,
м
9 мая, вс
вс900:00+6ссз61195100 0.9 1004912
03:00+4сз61397100 2.1 10071020
06:00+3сз71397100 0.7 1010727
09:00+4сз71193100 1.1 1012923
12:00+6сз71080100 0.3 10141175
15:00+8сз6105984 0.4 10161675
18:00+9ссз5106335 0.1 10181382
21:00+5сз38775 0.1 1021120
10 мая, пн
пн1000:00+3сз310805 0.0 1023177
03:00+2ссз37820 0.0 1025119
06:00+2ссз38780 0.0 1027176
09:00+9с36560 0.0 1028643
12:00+12с57420 0.0 10271598
15:00+14ссв57380 0.0 10271672
18:00+13ссв47510 0.0 1027892
21:00+6ссв33740 0.0 102841
11 мая, вт
вт1100:00+4ссв38810 0.0 1028145
03:00+4ссв311812 0.0 1028221
06:00+5ссв5147611 0.0 1028381
09:00+10св6116697 0.0 1027528
12:00+15св6106236 0.0 1026692
15:00+18всв686362 0.0 10251267
18:00+17всв5975100 0.0 1025800
21:00+12всв3796100 1.1 1025146
12 мая, ср
ср1200:00+12всв389760 0.6 1024238
03:00+12в379899 1.1 1023324
06:00+8ююз3796100 0.7 1023279
09:00+8юв1395100 1.8 1025192
12:00+13всв357624 0.0 1024792
15:00+14всв567255 0.1 1022931
18:00+15в477373 0.0 1020880
21:00+10в399786 0.1 1020239
13 мая, чт
чт1300:00+10вюв3898100 0.1 1020226
03:00+11вюв4109496 0.1 1019344
06:00+11вюв4109395 0.0 1019349
09:00+15юв597387 0.0 1019753
12:00+18ююв695843 0.1 10181721
15:00+19ю575555 0.3 10171775
18:00+18ююв366558 0.1 1017810
21:00+13вюв228670 0.1 101724